Flight Track Log - Related Links

Times and Time Zones

All times are in EDT time to prevent confusion due to time zone crossing. See the EGF2759 flight status page for this flight to view local times or setup timezone preferences in your user account.

Time Position Orientation Groundspeed Altitude Reporting Facility
EDT Latitude Longitude Course Direction KTS MPH feet Rate Location/Type
Thu 06:21:09 PM 37.1542 -93.5386 196° South 239 275 8,800  Level Memphis Center
Thu 06:22:11 PM 37.0878 -93.5667 199° South 248 285 10,800 1,615 Climbing Memphis Center
Thu 06:23:19 PM 36.9975 -93.6064 199° South 276 318 12,300 1,615 Climbing Kansas City Center
Thu 06:24:00 PM 36.8102 -93.7767 202° Southwest  Level Estimated
Thu 06:24:21 PM 36.9158 -93.6394 198° South 296 341 14,300  Level Kansas City Center
Thu 06:25:00 PM 36.7375 -93.8409 200° South  Level Estimated
Thu 06:25:23 PM 36.8303 -93.6728 197° South 307 353 15,900  Level Kansas City Center
Thu 06:26:25 PM 36.7486 -93.7081 199° South 309 356 17,400 1,355 Climbing Kansas City Center
Thu 06:27:27 PM 36.6658 -93.7447 200° South 310 357 18,700 1,513 Climbing Kansas City Center
Thu 06:28:24 PM 36.5833 -93.7783 198° South 315 362 20,400 1,714 Climbing Memphis Center
Thu 06:29:26 PM 36.5014 -93.8133 199° South 315 362 22,100 1,597 Climbing Memphis Center
Thu 06:30:28 PM 36.4197 -93.8483 199° South 314 361 23,700 1,548 Climbing Memphis Center
Thu 06:31:30 PM 36.3358 -93.8817 198° South 314 361 25,300 1,548 Climbing Memphis Center
Thu 06:32:32 PM 36.2522 -93.9158 198° South 314 361 26,900 1,742 Climbing Memphis Center
Thu 06:33:34 PM 36.1578 -93.9553 199° South 310 357 28,900 1,452 Climbing Memphis Center
Thu 06:34:36 PM 36.0778 -93.9883 198° South 306 352 29,900 532 Climbing Memphis Center
Thu 06:35:38 PM 35.9947 -94.0239 199° South 308 354 30,000 48 Climbing Memphis Center
Thu 06:36:40 PM 35.8956 -94.0639 198° South 340 391 30,000  Level Memphis Center
Thu 06:37:43 PM 35.7933 -94.1064 199° South 368 423 30,000  Level Memphis Center
Thu 06:38:45 PM 35.6906 -94.1481 198° South 381 438 30,000  Level Memphis Center
Thu 06:39:47 PM 35.5764 -94.1953 199° South 381 438 30,000  Level Memphis Center
Thu 06:40:49 PM 35.4761 -94.2356 198° South 381 438 30,000  Level Memphis Center
Thu 06:41:51 PM 35.3806 -94.2842 203° Southwest 381 438 30,000  Level Memphis Center
Thu 06:42:53 PM 35.2994 -94.3669 220° Southwest 383 441 30,000  Level Memphis Center
Thu 06:43:55 PM 35.2222 -94.4525 222° Southwest 380 437 30,000  Level Memphis Center
Thu 06:44:57 PM 35.1275 -94.5556 222° Southwest 380 437 30,000  Level Memphis Center
Thu 06:45:59 PM 35.0483 -94.6408 221° Southwest 380 437 30,000  Level Memphis Center
Thu 06:47:01 PM 34.9756 -94.7206 222° Southwest 380 437 30,000  Level Memphis Center
Thu 06:48:03 PM 34.8803 -94.8222 221° Southwest 380 437 30,000  Level Memphis Center
Thu 06:48:55 PM 34.8142 -94.8933 221° Southwest 379 436 30,000  Level Fort Worth Center
Thu 06:49:58 PM 34.7350 -94.9781 221° Southwest 379 436 30,000  Level Fort Worth Center
Thu 06:51:00 PM 34.6550 -95.0628 221° Southwest 381 438 30,000  Level Fort Worth Center
Thu 06:52:02 PM 34.5769 -95.1475 222° Southwest 380 437 30,000  Level Fort Worth Center
Thu 06:53:04 PM 34.4967 -95.2319 221° Southwest 380 437 30,000 -97 Level Fort Worth Center
Thu 06:54:06 PM 34.4189 -95.3158 222° Southwest 380 437 29,800 -387 Descending Fort Worth Center
Thu 06:55:08 PM 34.3211 -95.4169 221° Southwest 382 440 29,200 -532 Descending Fort Worth Center
Thu 06:56:10 PM 34.2406 -95.5028 221° Southwest 386 444 28,700 -532 Descending Fort Worth Center
Thu 06:57:12 PM 34.1453 -95.6022 221° Southwest 400 460 28,100 -528 Descending Fort Worth Center
Thu 06:58:15 PM 34.0639 -95.6886 221° Southwest 406 467 27,600 -480 Descending Fort Worth Center
Thu 06:59:17 PM 33.9758 -95.7808 221° Southwest 414 476 27,100 -1,016 Descending Fort Worth Center
Thu 07:00:19 PM 33.8878 -95.8717 221° Southwest 416 479 25,500 -2,468 Descending Fort Worth Center
Thu 07:01:21 PM 33.7892 -95.9725 220° Southwest 407 468 22,000 -3,290 Descending Fort Worth Center
Thu 07:02:23 PM 33.7022 -96.0628 221° Southwest 385 443 18,700 -2,516 Descending Fort Worth Center
Thu 07:03:25 PM 33.6261 -96.1403 220° Southwest 355 409 16,800 -2,129 Descending Fort Worth Center
Thu 07:04:27 PM 33.5522 -96.2153 220° Southwest 323 372 14,300 -2,226 Descending Fort Worth Center
Thu 07:05:29 PM 33.4900 -96.2883 224° Southwest 313 360 12,200 -1,584 Descending Fort Worth Center
Thu 07:06:32 PM 33.4242 -96.3675 225° Southwest 311 358 11,000 -672 Descending Fort Worth Center
Thu 07:07:34 PM 33.3722 -96.4342 227° Southwest 275 316 10,800 -677 Descending Fort Worth Center
Thu 07:08:36 PM 33.3461 -96.5236 251° West 265 305 9,600 -1,113 Descending Fort Worth Center
Thu 07:09:38 PM 33.3222 -96.6067 251° West 265 305 8,500 -1,016 Descending Fort Worth Center
Thu 07:10:40 PM 33.2983 -96.6875 251° West 264 304 7,500 -1,016 Descending Fort Worth Center
Thu 07:11:42 PM 33.2722 -96.7764 251° West 263 303 6,400 -1,016 Descending Fort Worth Center
Thu 07:12:44 PM 33.2486 -96.8589 251° West 263 303 5,400 -677 Descending Fort Worth Center
Thu 07:13:46 PM 33.2222 -96.9447 250° West 266 306 5,000 -194 Descending Fort Worth Center
Thu 07:14:48 PM 33.1850 -97.0164 238° Southwest 240 276 5,000 -144 Level Fort Worth Center
Thu 07:15:51 PM 33.1258 -97.0261 188° South 217 250 4,700 -720 Descending Fort Worth Center
Thu 07:16:53 PM 33.0661 -97.0261 180° South 204 235 3,500 -1,065 Descending Fort Worth Center
Thu 07:17:55 PM 33.0122 -97.0267 180° South 198 228 2,500 -968 Descending Fort Worth Center
Thu 07:18:57 PM 32.9639 -97.0267 180° South 161 185 1,500 -823 Descending Fort Worth Center
Thu 07:19:59 PM 32.9233 -97.0267 180° South 148 170 800 -677 Descending Fort Worth Center
Thu 07:21:00 PM 32.8968 -97.0380 183° South  Level Estimated
Thu 07:28:00 PM 32.8968 -97.0380 North  Level Estimated
Thu 07:29:00 PM 32.8968 -97.0380 183° South  Level Estimated

Login

Don't have an account? Register now (free) for customized features, flight alerts, and more!